Retour au catalogue

STARLINK-3942

ActifCommunicationsVLEO
NORAD 52563·PAYLOAD·🇺🇸 United States

Lancé May 13, 2022 depuis Vandenberg Space Force Base

Loading…

Prochains Passages (prochaines 24 heures)

TLE

FraisSource: CelesTrak SupGP

Époque: Sep 15, 2026, 02:55 UTC

1 52563C 22051AG  26258.12201389  .00050239  00000+0  14375-2 0  2588
2 52563  53.1599 351.0045 0001089  87.8602 224.8781 15.35369999    14

Suivez STARLINK-3942 en temps réel avec AllMySat

Download on the App Store